Wetterdaten: Donnerstag, 14.06.2012
Datum Zeit Temperatur Luftfeuchte Regen Wind Richtung Richtung Taupunkt Windchill Windben
14.06.2012 00:00 8,8 C 89 % 0,0 l/m 2,4 km/h (1 Bft) O-SO 112 7,1 C 8,5 C 0,0 km/h (0 Bft)
14.06.2012 00:05 8,7 C 89 % 0,7 l/m 2,7 km/h (1 Bft) O-SO 112 7,0 C 8,4 C 9,0 km/h (2 Bft)
14.06.2012 00:10 8,4 C 90 % 0,0 l/m 2,4 km/h (1 Bft) N-NO 22 6,9 C 8,3 C 2,7 km/h (1 Bft)
14.06.2012 00:15 8,2 C 90 % 0,0 l/m 2,3 km/h (1 Bft) N-NO 22 6,7 C 8,1 C 0,0 km/h (0 Bft)
14.06.2012 00:20 7,8 C 90 % 0,0 l/m 0,8 km/h (0 Bft) O-SO 112 6,3 C 7,8 C 2,1 km/h (1 Bft)
14.06.2012 00:25 7,6 C 90 % 0,0 l/m 0,8 km/h (0 Bft) SO 135 6,1 C 7,7 C 0,0 km/h (0 Bft)
14.06.2012 00:30 7,4 C 90 % 0,0 l/m 0,5 km/h (0 Bft) SO 135 5,9 C 7,5 C 0,0 km/h (0 Bft)
14.06.2012 00:35 7,4 C 90 % 0,0 l/m 0,2 km/h (0 Bft) O 90 5,9 C 7,4 C 1,8 km/h (1 Bft)
14.06.2012 00:40 7,7 C 91 % 0,0 l/m 1,0 km/h (0 Bft) O-SO 112 6,3 C 7,6 C 1,6 km/h (1 Bft)
14.06.2012 00:45 7,8 C 91 % 0,0 l/m 1,3 km/h (1 Bft) N 360 6,4 C 7,8 C 0,0 km/h (0 Bft)
14.06.2012 00:50 7,9 C 91 % 0,0 l/m 1,0 km/h (0 Bft) O-NO 67 6,5 C 7,8 C 0,0 km/h (0 Bft)
14.06.2012 00:55 7,8 C 91 % 0,0 l/m 0,5 km/h (0 Bft) O 90 6,4 C 7,8 C 0,0 km/h (0 Bft)
14.06.2012 01:00 7,6 C 91 % 0,0 l/m 0,8 km/h (0 Bft) N 360 6,2 C 7,6 C 2,9 km/h (1 Bft)
14.06.2012 01:05 7,4 C 92 % 0,0 l/m 0,8 km/h (0 Bft) N 360 6,2 C 7,5 C 0,0 km/h (0 Bft)
14.06.2012 01:10 7,4 C 92 % 0,0 l/m 1,0 km/h (0 Bft) N 360 6,2 C 7,5 C 0,0 km/h (0 Bft)
14.06.2012 01:15 7,4 C 92 % 0,0 l/m 1,0 km/h (0 Bft) O 90 6,2 C 7,4 C 2,3 km/h (1 Bft)
14.06.2012 01:20 7,3 C 92 % 0,0 l/m 0,5 km/h (0 Bft) NO 45 6,1 C 7,3 C 8,4 km/h (2 Bft)
14.06.2012 01:25 7,2 C 92 % 0,0 l/m 0,3 km/h (0 Bft) N-NO 22 6,0 C 7,2 C 0,0 km/h (0 Bft)
14.06.2012 01:30 7,3 C 92 % 0,0 l/m 0,5 km/h (0 Bft) N-NO 22 6,1 C 7,1 C 0,0 km/h (0 Bft)
14.06.2012 01:35 7,3 C 92 % 0,0 l/m 0,6 km/h (0 Bft) N 360 6,1 C 7,0 C 2,4 km/h (1 Bft)
14.06.2012 01:40 7,1 C 92 % 0,0 l/m 0,5 km/h (0 Bft) NO 45 5,9 C 6,9 C 1,8 km/h (1 Bft)
14.06.2012 01:45 6,8 C 92 % 0,0 l/m 0,5 km/h (0 Bft) N 360 5,6 C 6,8 C 2,9 km/h (1 Bft)
14.06.2012 01:50 7,1 C 92 % 0,0 l/m 0,8 km/h (0 Bft) N 360 5,9 C 6,8 C 2,1 km/h (1 Bft)
14.06.2012 01:55 7,1 C 92 % 0,0 l/m 1,0 km/h (0 Bft) N 360 5,9 C 6,7 C 0,0 km/h (0 Bft)
14.06.2012 02:00 6,8 C 92 % 0,0 l/m 0,3 km/h (0 Bft) N-NO 22 5,6 C 6,5 C 1,8 km/h (1 Bft)
14.06.2012 02:05 6,8 C 92 % 0,0 l/m 0,2 km/h (0 Bft) N-NO 22 5,6 C 6,5 C 0,0 km/h (0 Bft)
14.06.2012 02:10 6,8 C 92 % 0,0 l/m 0,2 km/h (0 Bft) NO 45 5,6 C 6,4 C 1,9 km/h (1 Bft)
14.06.2012 02:15 6,7 C 93 % 0,0 l/m 0,3 km/h (0 Bft) NO 45 5,6 C 6,4 C 0,0 km/h (0 Bft)
14.06.2012 02:20 6,5 C 93 % 0,0 l/m 0,3 km/h (0 Bft) N-NO 22 5,5 C 6,3 C 1,9 km/h (1 Bft)
14.06.2012 02:25 6,6 C 93 % 0,0 l/m 0,3 km/h (0 Bft) N 360 5,6 C 6,2 C 2,7 km/h (1 Bft)
14.06.2012 02:30 6,4 C 93 % 0,0 l/m 0,5 km/h (0 Bft) N-NO 22 5,4 C 6,2 C 0,0 km/h (0 Bft)
14.06.2012 02:35 6,4 C 93 % 0,0 l/m 0,3 km/h (0 Bft) N-NO 22 5,4 C 6,1 C 0,0 km/h (0 Bft)
14.06.2012 02:40 6,4 C 93 % 0,0 l/m 0,2 km/h (0 Bft) N-NO 22 5,4 C 6,1 C 1,8 km/h (1 Bft)
14.06.2012 02:45 6,5 C 93 % 0,0 l/m 0,5 km/h (0 Bft) O-NO 67 5,5 C 6,1 C 3,1 km/h (1 Bft)
14.06.2012 02:50 6,4 C 93 % 0,0 l/m 0,5 km/h (0 Bft) NO 45 5,4 C 6,1 C 0,0 km/h (0 Bft)
14.06.2012 02:55 6,1 C 93 % 0,0 l/m 0,2 km/h (0 Bft) N-NO 22 5,1 C 5,9 C 0,0 km/h (0 Bft)
14.06.2012 03:00 5,9 C 94 % 0,0 l/m 0,2 km/h (0 Bft) N-NO 22 5,0 C 5,6 C 0,0 km/h (0 Bft)
14.06.2012 03:05 6,0 C 93 % 0,0 l/m 0,3 km/h (0 Bft) O-NO 67 5,0 C 5,6 C 0,0 km/h (0 Bft)
14.06.2012 03:10 5,6 C 94 % 0,0 l/m 0,2 km/h (0 Bft) S 180 4,7 C 5,4 C 0,0 km/h (0 Bft)
14.06.2012 03:15 5,6 C 94 % 0,0 l/m 0,0 km/h (0 Bft) N-NO 22 4,7 C 5,1 C 0,0 km/h (0 Bft)
14.06.2012 03:20 5,8 C 94 % 0,0 l/m 0,2 km/h (0 Bft) N-NO 22 4,9 C 5,3 C 0,0 km/h (0 Bft)
14.06.2012 03:25 5,8 C 94 % 0,0 l/m 0,0 km/h (0 Bft) NO 45 4,9 C 5,4 C 0,0 km/h (0 Bft)
14.06.2012 03:30 5,8 C 94 % 0,0 l/m 0,3 km/h (0 Bft) N-NW 337 4,9 C 5,4 C 0,0 km/h (0 Bft)
14.06.2012 03:35 5,6 C 94 % 0,0 l/m 0,3 km/h (0 Bft) W-SW 247 4,7 C 5,4 C 0,0 km/h (0 Bft)
14.06.2012 03:40 5,2 C 94 % 0,0 l/m 0,2 km/h (0 Bft) W-SW 247 4,3 C 5,1 C 0,0 km/h (0 Bft)
14.06.2012 03:44 5,3 C 94 % 0,0 l/m 0,0 km/h (0 Bft) N-NO 22 4,4 C 4,8 C 0,0 km/h (0 Bft)
14.06.2012 03:49 5,1 C 94 % 0,0 l/m 0,0 km/h (0 Bft) NO 45 4,2 C 4,7 C 0,0 km/h (0 Bft)
14.06.2012 03:54 5,2 C 94 % 0,0 l/m 0,0 km/h (0 Bft) N-NW 337 4,3 C 4,6 C 0,0 km/h (0 Bft)
14.06.2012 03:59 5,2 C 94 % 0,0 l/m 0,2 km/h (0 Bft) N-NO 22 4,3 C 4,6 C 0,0 km/h (0 Bft)
14.06.2012 04:04 5,0 C 94 % 0,0 l/m 0,3 km/h (0 Bft) S 180 4,1 C 4,7 C 0,0 km/h (0 Bft)
14.06.2012 04:09 4,8 C 95 % 0,0 l/m 0,0 km/h (0 Bft) N 360 4,1 C 4,6 C 0,0 km/h (0 Bft)
14.06.2012 04:14 4,7 C 95 % 0,0 l/m 0,0 km/h (0 Bft) S 180 4,0 C 4,4 C 0,0 km/h (0 Bft)
14.06.2012 04:19 4,8 C 95 % 0,0 l/m 0,0 km/h (0 Bft) N 360 4,1 C 4,3 C 0,0 km/h (0 Bft)
14.06.2012 04:24 5,0 C 94 % 0,0 l/m 0,2 km/h (0 Bft) NO 45 4,1 C 4,3 C 0,0 km/h (0 Bft)
14.06.2012 04:29 4,9 C 95 % 0,0 l/m 0,2 km/h (0 Bft) SO 135 4,2 C 4,3 C 0,0 km/h (0 Bft)
14.06.2012 04:34 5,0 C 95 % 0,0 l/m 0,2 km/h (0 Bft) N-NO 22 4,3 C 4,2 C 0,0 km/h (0 Bft)
14.06.2012 04:39 5,1 C 95 % 0,0 l/m 0,2 km/h (0 Bft) N-NO 22 4,4 C 4,4 C 0,0 km/h (0 Bft)
14.06.2012 04:44 4,9 C 95 % 0,0 l/m 1,0 km/h (0 Bft) NW 315 4,2 C 4,6 C 3,4 km/h (1 Bft)
14.06.2012 04:49 4,9 C 95 % 0,0 l/m 1,4 km/h (1 Bft) N 360 4,2 C 4,7 C 2,3 km/h (1 Bft)
14.06.2012 04:54 4,8 C 95 % 0,0 l/m 1,6 km/h (1 Bft) NO 45 4,1 C 4,7 C 0,0 km/h (0 Bft)
14.06.2012 04:59 4,8 C 95 % 0,0 l/m 1,1 km/h (1 Bft) W-NW 292 4,1 C 4,6 C 0,0 km/h (0 Bft)
14.06.2012 05:04 4,4 C 95 % 0,0 l/m 0,5 km/h (0 Bft) S-SO 157 3,7 C 4,4 C 2,4 km/h (1 Bft)
14.06.2012 05:09 4,6 C 95 % 0,0 l/m 0,5 km/h (0 Bft) O-NO 67 3,9 C 4,3 C 0,0 km/h (0 Bft)
14.06.2012 05:14 4,4 C 95 % 0,0 l/m 0,5 km/h (0 Bft) N 360 3,7 C 4,0 C 0,0 km/h (0 Bft)
14.06.2012 05:19 4,4 C 95 % 0,0 l/m 0,0 km/h (0 Bft) SW 225 3,7 C 4,0 C 0,0 km/h (0 Bft)
14.06.2012 05:24 4,2 C 95 % 0,0 l/m 0,0 km/h (0 Bft) SO 135 3,5 C 3,8 C 0,0 km/h (0 Bft)
14.06.2012 05:29 4,1 C 95 % 0,0 l/m 0,0 km/h (0 Bft) S 180 3,4 C 3,8 C 0,0 km/h (0 Bft)
14.06.2012 05:34 4,3 C 95 % 0,0 l/m 0,0 km/h (0 Bft) N-NW 337 3,6 C 3,9 C 0,0 km/h (0 Bft)
14.06.2012 05:39 4,2 C 95 % 0,0 l/m 0,0 km/h (0 Bft) N-NO 22 3,5 C 4,0 C 0,0 km/h (0 Bft)
14.06.2012 05:44 4,3 C 95 % 0,0 l/m 0,0 km/h (0 Bft) N 360 3,6 C 4,4 C 0,0 km/h (0 Bft)
14.06.2012 05:49 4,5 C 95 % 0,0 l/m 0,0 km/h (0 Bft) SW 225 3,8 C 4,4 C 0,0 km/h (0 Bft)
14.06.2012 05:54 4,6 C 95 % 0,0 l/m 0,0 km/h (0 Bft) W-NW 292 3,9 C 5,1 C 0,0 km/h (0 Bft)
14.06.2012 05:59 4,9 C 95 % 0,0 l/m 0,0 km/h (0 Bft) N-NW 337 4,2 C 6,0 C 0,0 km/h (0 Bft)
14.06.2012 06:04 6,4 C 94 % 0,0 l/m 0,0 km/h (0 Bft) N-NW 337 5,6 C 7,5 C 0,0 km/h (0 Bft)
14.06.2012 06:09 6,5 C 94 % 0,0 l/m 0,0 km/h (0 Bft) N-NO 22 6,0 C 8,1 C 0,0 km/h (0 Bft)
14.06.2012 06:14 6,6 C 93 % 0,0 l/m 0,0 km/h (0 Bft) W-NW 292 6,6 C 8,9 C 0,0 km/h (0 Bft)
14.06.2012 06:19 6,9 C 92 % 0,0 l/m 0,0 km/h (0 Bft) N 360 7,1 C 9,7 C 0,0 km/h (0 Bft)
14.06.2012 06:24 8,1 C 92 % 0,0 l/m 0,0 km/h (0 Bft) S-SW 202 7,6 C 10,6 C 0,0 km/h (0 Bft)
14.06.2012 06:29 9,2 C 90 % 0,0 l/m 0,0 km/h (0 Bft) N 360 7,6 C 11,3 C 0,0 km/h (0 Bft)
14.06.2012 06:34 10,3 C 89 % 0,0 l/m 0,0 km/h (0 Bft) S 180 8,6 C 12,5 C 0,0 km/h (0 Bft)
14.06.2012 06:39 11,4 C 88 % 0,0 l/m 0,0 km/h (0 Bft) N-NW 337 9,5 C 13,0 C 0,0 km/h (0 Bft)
14.06.2012 06:44 12,5 C 86 % 0,0 l/m 0,0 km/h (0 Bft) W-SW 247 10,5 C 14,2 C 0,0 km/h (0 Bft)
14.06.2012 06:49 12,2 C 76 % 0,0 l/m 0,0 km/h (0 Bft) S-SO 157 8,1 C 14,7 C 0,0 km/h (0 Bft)
14.06.2012 06:54 12,6 C 76 % 0,0 l/m 0,0 km/h (0 Bft) S-SO 157 8,5 C 15,0 C 0,0 km/h (0 Bft)
14.06.2012 06:59 12,8 C 74 % 0,0 l/m 0,0 km/h (0 Bft) N 360 8,3 C 15,4 C 0,0 km/h (0 Bft)
14.06.2012 07:04 14,5 C 75 % 0,0 l/m 0,0 km/h (0 Bft) NO 45 10,1 C 16,1 C 0,0 km/h (0 Bft)
14.06.2012 07:09 14,2 C 70 % 0,0 l/m 0,0 km/h (0 Bft) S-SW 202 8,8 C 16,6 C 0,0 km/h (0 Bft)
14.06.2012 07:14 14,3 C 70 % 0,0 l/m 0,0 km/h (0 Bft) S 180 8,9 C 16,9 C 0,0 km/h (0 Bft)
14.06.2012 07:19 14,6 C 65 % 0,0 l/m 0,0 km/h (0 Bft) N 360 8,1 C 17,4 C 0,0 km/h (0 Bft)
14.06.2012 07:24 15,3 C 68 % 0,0 l/m 0,0 km/h (0 Bft) S-SW 202 9,4 C 17,8 C 0,0 km/h (0 Bft)
14.06.2012 07:29 15,5 C 65 % 0,0 l/m 0,2 km/h (0 Bft) W-SW 247 8,9 C 17,8 C 0,0 km/h (0 Bft)
14.06.2012 07:34 15,9 C 65 % 0,0 l/m 0,2 km/h (0 Bft) S-SW 202 9,3 C 17,9 C 0,0 km/h (0 Bft)
14.06.2012 07:39 16,0 C 59 % 0,0 l/m 0,0 km/h (0 Bft) N 360 8,0 C 18,1 C 0,0 km/h (0 Bft)
14.06.2012 07:44 16,7 C 62 % 0,0 l/m 0,0 km/h (0 Bft) W-NW 292 9,4 C 18,8 C 0,0 km/h (0 Bft)
14.06.2012 07:49 16,9 C 63 % 0,0 l/m 0,0 km/h (0 Bft) W 270 9,8 C 19,5 C 0,0 km/h (0 Bft)
14.06.2012 07:54 17,1 C 60 % 0,0 l/m 0,0 km/h (0 Bft) S-SW 202 9,3 C 19,6 C 0,0 km/h (0 Bft)
14.06.2012 07:59 17,9 C 62 % 0,0 l/m 0,2 km/h (0 Bft) SW 225 10,5 C 20,2 C 1,9 km/h (1 Bft)
14.06.2012 08:04 17,4 C 59 % 0,0 l/m 0,3 km/h (0 Bft) N-NO 22 9,3 C 20,3 C 0,0 km/h (0 Bft)
14.06.2012 08:09 18,5 C 61 % 0,0 l/m 0,2 km/h (0 Bft) W-SW 247 10,8 C 20,4 C 2,1 km/h (1 Bft)
14.06.2012 08:14 18,1 C 60 % 0,0 l/m 0,6 km/h (0 Bft) W-NW 292 10,2 C 20,6 C 0,0 km/h (0 Bft)
14.06.2012 08:19 18,1 C 57 % 0,0 l/m 0,8 km/h (0 Bft) W 270 9,4 C 20,6 C 1,6 km/h (1 Bft)
14.06.2012 08:24 18,6 C 59 % 0,0 l/m 0,3 km/h (0 Bft) W-SW 247 10,4 C 21,3 C 0,0 km/h (0 Bft)
14.06.2012 08:29 18,0 C 49 % 0,0 l/m 0,8 km/h (0 Bft) W-NW 292 7,1 C 21,3 C 2,3 km/h (1 Bft)
14.06.2012 08:34 18,7 C 58 % 0,0 l/m 1,3 km/h (1 Bft) S 180 10,3 C 21,2 C 1,8 km/h (1 Bft)
14.06.2012 08:39 18,1 C 55 % 0,0 l/m 2,1 km/h (1 Bft) S 180 8,9 C 20,8 C 4,5 km/h (1 Bft)
14.06.2012 08:44 18,3 C 53 % 0,0 l/m 3,5 km/h (1 Bft) O-SO 112 9,0 C 20,0 C 3,4 km/h (1 Bft)
14.06.2012 08:49 18,3 C 53 % 0,0 l/m 3,7 km/h (1 Bft) O-SO 112 9,3 C 19,6 C 2,1 km/h (1 Bft)
14.06.2012 08:54 18,1 C 55 % 0,0 l/m 3,1 km/h (1 Bft) SW 225 9,4 C 19,8 C 0,0 km/h (0 Bft)
14.06.2012 08:59 18,1 C 54 % 0,0 l/m 2,6 km/h (1 Bft) S 180 9,2 C 20,1 C 4,2 km/h (1 Bft)
14.06.2012 09:04 18,0 C 54 % 0,0 l/m 2,4 km/h (1 Bft) W 270 9,4 C 20,1 C 3,4 km/h (1 Bft)
14.06.2012 09:09 18,1 C 57 % 0,0 l/m 2,7 km/h (1 Bft) S 180 9,9 C 20,1 C 3,9 km/h (1 Bft)
14.06.2012 09:14 18,5 C 58 % 0,0 l/m 1,8 km/h (1 Bft) W-SW 247 10,9 C 20,9 C 3,7 km/h (1 Bft)
14.06.2012 09:19 18,4 C 56 % 0,0 l/m 1,9 km/h (1 Bft) S 180 10,4 C 21,0 C 3,1 km/h (1 Bft)
14.06.2012 09:24 18,6 C 55 % 0,0 l/m 2,1 km/h (1 Bft) W-NW 292 10,6 C 21,3 C 3,7 km/h (1 Bft)
14.06.2012 09:29 18,4 C 56 % 0,0 l/m 1,6 km/h (1 Bft) W-SW 247 10,7 C 21,4 C 4,3 km/h (1 Bft)
14.06.2012 09:34 18,5 C 51 % 0,0 l/m 2,7 km/h (1 Bft) W 270 8,8 C 21,0 C 6,0 km/h (2 Bft)
14.06.2012 09:39 18,4 C 55 % 0,0 l/m 2,6 km/h (1 Bft) W 270 10,3 C 21,0 C 4,7 km/h (1 Bft)
14.06.2012 09:44 18,7 C 55 % 0,0 l/m 2,9 km/h (1 Bft) SO 135 10,6 C 20,9 C 5,1 km/h (1 Bft)
14.06.2012 09:49 18,8 C 52 % 0,0 l/m 3,4 km/h (1 Bft) S 180 9,4 C 20,9 C 5,0 km/h (1 Bft)
14.06.2012 09:54 19,2 C 53 % 0,0 l/m 2,6 km/h (1 Bft) SO 135 10,6 C 21,3 C 3,4 km/h (1 Bft)
14.06.2012 09:59 19,6 C 55 % 0,0 l/m 1,9 km/h (1 Bft) O-SO 112 10,5 C 21,4 C 0,0 km/h (0 Bft)
14.06.2012 10:04 19,2 C 51 % 0,0 l/m 3,1 km/h (1 Bft) SO 135 9,4 C 21,3 C 4,5 km/h (1 Bft)
14.06.2012 10:09 19,3 C 51 % 0,0 l/m 3,2 km/h (1 Bft) O-SO 112 9,0 C 20,9 C 6,9 km/h (2 Bft)
14.06.2012 10:14 19,5 C 48 % 0,0 l/m 3,4 km/h (1 Bft) O-SO 112 8,8 C 21,0 C 4,8 km/h (1 Bft)
14.06.2012 10:19 19,8 C 48 % 0,0 l/m 3,4 km/h (1 Bft) O 90 8,5 C 20,9 C 3,4 km/h (1 Bft)
14.06.2012 10:24 20,4 C 45 % 0,0 l/m 3,2 km/h (1 Bft) S 180 8,2 C 21,8 C 4,3 km/h (1 Bft)
14.06.2012 10:29 19,8 C 46 % 0,0 l/m 2,3 km/h (1 Bft) W-SW 247 7,8 C 22,3 C 4,8 km/h (1 Bft)
14.06.2012 10:34 19,0 C 48 % 0,0 l/m 3,9 km/h (1 Bft) S-SO 157 7,7 C 21,4 C 3,2 km/h (1 Bft)
14.06.2012 10:39 18,9 C 48 % 0,0 l/m 4,5 km/h (1 Bft) S-SW 202 7,6 C 21,1 C 5,0 km/h (1 Bft)
14.06.2012 10:44 18,6 C 48 % 0,0 l/m 4,0 km/h (1 Bft) W-NW 292 7,4 C 21,0 C 7,1 km/h (2 Bft)
14.06.2012 10:49 18,6 C 45 % 0,0 l/m 3,7 km/h (1 Bft) N 360 6,4 C 21,1 C 2,7 km/h (1 Bft)
14.06.2012 10:54 18,2 C 47 % 0,0 l/m 1,9 km/h (1 Bft) N-NO 22 6,7 C 21,8 C 0,0 km/h (0 Bft)
14.06.2012 10:59 18,5 C 47 % 0,0 l/m 1,4 km/h (1 Bft) W 270 7,0 C 22,0 C 2,9 km/h (1 Bft)
14.06.2012 11:04 18,4 C 47 % 0,0 l/m 2,3 km/h (1 Bft) W-SW 247 6,9 C 22,0 C 7,7 km/h (2 Bft)
14.06.2012 11:09 18,0 C 49 % 0,0 l/m 2,6 km/h (1 Bft) S 180 7,1 C 21,5 C 1,6 km/h (1 Bft)
14.06.2012 11:14 17,9 C 50 % 0,0 l/m 2,6 km/h (1 Bft) W-SW 247 7,3 C 20,7 C 1,8 km/h (1 Bft)
14.06.2012 11:19 18,6 C 49 % 0,0 l/m 1,6 km/h (1 Bft) O-SO 112 7,7 C 20,9 C 0,0 km/h (0 Bft)
14.06.2012 11:24 19,3 C 48 % 0,0 l/m 2,3 km/h (1 Bft) S-SO 157 8,0 C 21,4 C 5,0 km/h (1 Bft)
14.06.2012 11:29 18,9 C 47 % 0,0 l/m 2,9 km/h (1 Bft) S-SW 202 7,3 C 21,6 C 4,5 km/h (1 Bft)
14.06.2012 11:34 18,9 C 48 % 0,0 l/m 3,4 km/h (1 Bft) S 180 7,6 C 21,2 C 2,1 km/h (1 Bft)
14.06.2012 11:39 18,6 C 49 % 0,0 l/m 2,9 km/h (1 Bft) O-SO 112 7,7 C 21,1 C 3,2 km/h (1 Bft)
14.06.2012 11:44 19,3 C 47 % 0,0 l/m 1,9 km/h (1 Bft) W 270 7,7 C 21,4 C 1,6 km/h (1 Bft)
14.06.2012 11:49 18,6 C 47 % 0,0 l/m 1,8 km/h (1 Bft) SW 225 7,1 C 21,5 C 2,9 km/h (1 Bft)
14.06.2012 11:54 18,7 C 49 % 0,0 l/m 2,6 km/h (1 Bft) N-NO 22 7,8 C 21,1 C 4,3 km/h (1 Bft)
14.06.2012 11:59 19,5 C 48 % 0,0 l/m 3,2 km/h (1 Bft) S 180 8,2 C 21,2 C 1,6 km/h (1 Bft)
14.06.2012 12:04 18,3 C 49 % 0,0 l/m 3,5 km/h (1 Bft) W-SW 247 7,4 C 20,7 C 4,0 km/h (1 Bft)
14.06.2012 12:09 18,3 C 48 % 0,0 l/m 2,7 km/h (1 Bft) NW 315 7,1 C 20,5 C 2,9 km/h (1 Bft)
14.06.2012 12:14 18,8 C 48 % 0,0 l/m 2,1 km/h (1 Bft) NW 315 7,6 C 20,9 C 0,0 km/h (0 Bft)
14.06.2012 12:19 18,0 C 49 % 0,0 l/m 2,4 km/h (1 Bft) W 270 7,1 C 20,7 C 0,0 km/h (0 Bft)
14.06.2012 12:24 19,6 C 47 % 0,0 l/m 2,7 km/h (1 Bft) S-SW 202 8,0 C 20,3 C 5,8 km/h (2 Bft)
14.06.2012 12:29 19,9 C 46 % 0,0 l/m 3,7 km/h (1 Bft) W-SW 247 7,9 C 20,8 C 7,4 km/h (2 Bft)
14.06.2012 12:34 20,4 C 45 % 0,0 l/m 3,4 km/h (1 Bft) N-NW 337 8,1 C 22,4 C 2,1 km/h (1 Bft)
14.06.2012 12:39 20,4 C 44 % 0,0 l/m 2,7 km/h (1 Bft) W-NW 292 7,7 C 23,2 C 2,6 km/h (1 Bft)
14.06.2012 12:44 18,4 C 48 % 0,0 l/m 2,9 km/h (1 Bft) O 90 7,2 C 22,5 C 0,0 km/h (0 Bft)
14.06.2012 12:49 19,5 C 48 % 0,0 l/m 2,6 km/h (1 Bft) N-NO 22 8,2 C 22,0 C 0,0 km/h (0 Bft)
14.06.2012 12:54 18,9 C 48 % 0,0 l/m 1,3 km/h (1 Bft) W-NW 292 7,6 C 22,2 C 4,2 km/h (1 Bft)
14.06.2012 12:59 18,1 C 49 % 0,0 l/m 2,4 km/h (1 Bft) S 180 7,2 C 21,4 C 5,1 km/h (1 Bft)
14.06.2012 13:04 17,7 C 52 % 0,0 l/m 5,6 km/h (1 Bft) W 270 7,7 C 19,8 C 4,2 km/h (1 Bft)
14.06.2012 13:09 17,7 C 53 % 0,0 l/m 6,1 km/h (2 Bft) S 180 8,0 C 19,3 C 5,5 km/h (1 Bft)
14.06.2012 13:14 17,7 C 53 % 0,0 l/m 4,7 km/h (1 Bft) W-SW 247 8,0 C 18,9 C 7,9 km/h (2 Bft)
14.06.2012 13:19 17,7 C 52 % 0,0 l/m 4,7 km/h (1 Bft) W 270 7,7 C 18,6 C 5,8 km/h (2 Bft)
14.06.2012 13:24 19,1 C 49 % 0,0 l/m 4,7 km/h (1 Bft) W 270 8,1 C 20,0 C 5,6 km/h (1 Bft)
14.06.2012 13:29 19,2 C 49 % 0,0 l/m 5,0 km/h (1 Bft) W-SW 247 8,2 C 20,4 C 10,3 km/h (2 Bft)
14.06.2012 13:34 19,7 C 48 % 0,0 l/m 5,8 km/h (2 Bft) W 270 8,4 C 21,0 C 5,3 km/h (1 Bft)
14.06.2012 13:39 19,6 C 47 % 0,0 l/m 6,4 km/h (2 Bft) W-NW 292 8,0 C 21,3 C 9,5 km/h (2 Bft)
14.06.2012 13:44 19,7 C 45 % 0,0 l/m 6,3 km/h (2 Bft) S 180 7,4 C 21,2 C 3,2 km/h (1 Bft)
14.06.2012 13:49 19,4 C 46 % 0,0 l/m 5,5 km/h (1 Bft) N-NO 22 7,5 C 21,7 C 3,7 km/h (1 Bft)
14.06.2012 13:54 18,0 C 49 % 0,0 l/m 4,3 km/h (1 Bft) W-NW 292 7,1 C 21,1 C 9,2 km/h (2 Bft)
14.06.2012 13:59 17,5 C 49 % 0,0 l/m 4,3 km/h (1 Bft) W 270 6,7 C 20,1 C 4,5 km/h (1 Bft)
14.06.2012 14:04 18,4 C 50 % 0,0 l/m 4,3 km/h (1 Bft) SW 225 7,8 C 19,5 C 5,3 km/h (1 Bft)
14.06.2012 14:09 20,1 C 48 % 0,0 l/m 3,5 km/h (1 Bft) SO 135 8,7 C 20,6 C 1,9 km/h (1 Bft)
14.06.2012 14:14 20,4 C 44 % 0,0 l/m 3,9 km/h (1 Bft) S-SO 157 7,7 C 22,6 C 7,9 km/h (2 Bft)
14.06.2012 14:19 19,4 C 46 % 0,0 l/m 3,9 km/h (1 Bft) N 360 7,5 C 22,2 C 3,7 km/h (1 Bft)
14.06.2012 14:24 20,4 C 48 % 0,0 l/m 2,6 km/h (1 Bft) W-SW 247 9,0 C 22,3 C 5,6 km/h (1 Bft)
14.06.2012 14:29 20,6 C 47 % 0,0 l/m 3,2 km/h (1 Bft) S 180 8,9 C 22,6 C 9,5 km/h (2 Bft)
14.06.2012 14:34 20,8 C 43 % 0,0 l/m 5,6 km/h (1 Bft) S-SW 202 7,8 C 23,0 C 6,9 km/h (2 Bft)
14.06.2012 14:39 21,1 C 41 % 0,0 l/m 6,3 km/h (2 Bft) W-SW 247 7,3 C 23,0 C 6,8 km/h (2 Bft)
14.06.2012 14:44 19,4 C 46 % 0,0 l/m 5,5 km/h (1 Bft) W-SW 247 7,5 C 22,7 C 5,0 km/h (1 Bft)
14.06.2012 14:49 19,7 C 48 % 0,0 l/m 5,0 km/h (1 Bft) W-NW 292 8,4 C 22,2 C 9,0 km/h (2 Bft)
14.06.2012 14:54 18,1 C 48 % 0,0 l/m 4,3 km/h (1 Bft) N-NW 337 6,9 C 21,3 C 3,2 km/h (1 Bft)
14.06.2012 14:59 18,0 C 50 % 0,0 l/m 4,3 km/h (1 Bft) N-NO 22 7,4 C 20,7 C 5,3 km/h (1 Bft)
14.06.2012 15:04 18,1 C 49 % 0,0 l/m 4,3 km/h (1 Bft) W-NW 292 7,2 C 19,8 C 6,8 km/h (2 Bft)
14.06.2012 15:09 17,9 C 50 % 0,0 l/m 4,2 km/h (1 Bft) W 270 7,3 C 19,5 C 3,2 km/h (1 Bft)
14.06.2012 15:14 18,4 C 50 % 0,0 l/m 3,9 km/h (1 Bft) NW 315 7,8 C 19,6 C 11,1 km/h (2 Bft)
14.06.2012 15:19 18,1 C 50 % 0,0 l/m 4,5 km/h (1 Bft) N 360 7,5 C 19,7 C 4,3 km/h (1 Bft)
14.06.2012 15:24 18,4 C 51 % 0,0 l/m 5,0 km/h (1 Bft) S-SW 202 8,1 C 19,8 C 8,7 km/h (2 Bft)
14.06.2012 15:29 18,2 C 50 % 0,0 l/m 5,0 km/h (1 Bft) W-SW 247 7,6 C 19,7 C 5,8 km/h (2 Bft)
14.06.2012 15:34 18,7 C 49 % 0,0 l/m 6,0 km/h (2 Bft) W 270 7,8 C 19,8 C 5,3 km/h (1 Bft)
14.06.2012 15:39 19,2 C 48 % 0,0 l/m 5,1 km/h (1 Bft) S-SW 202 7,9 C 20,6 C 8,2 km/h (2 Bft)
14.06.2012 15:44 18,4 C 50 % 0,0 l/m 3,7 km/h (1 Bft) SO 135 7,8 C 21,0 C 0,0 km/h (0 Bft)
14.06.2012 15:49 18,7 C 50 % 0,0 l/m 2,4 km/h (1 Bft) N-NW 337 8,1 C 20,9 C 0,0 km/h (0 Bft)
14.06.2012 15:54 18,7 C 49 % 0,0 l/m 0,5 km/h (0 Bft) N 360 7,8 C 20,9 C 2,6 km/h (1 Bft)
14.06.2012 15:59 19,6 C 48 % 0,0 l/m 2,1 km/h (1 Bft) S-SW 202 8,3 C 21,4 C 9,3 km/h (2 Bft)
14.06.2012 16:04 20,5 C 47 % 0,0 l/m 4,2 km/h (1 Bft) S-SW 202 8,8 C 22,2 C 5,1 km/h (1 Bft)
14.06.2012 16:09 20,4 C 46 % 0,0 l/m 4,5 km/h (1 Bft) N-NW 337 8,4 C 23,0 C 6,9 km/h (2 Bft)
14.06.2012 16:14 18,7 C 48 % 0,0 l/m 4,7 km/h (1 Bft) W-SW 247 7,5 C 22,7 C 7,7 km/h (2 Bft)
14.06.2012 16:19 18,4 C 51 % 0,0 l/m 4,8 km/h (1 Bft) N-NW 337 8,1 C 21,4 C 6,3 km/h (2 Bft)
14.06.2012 16:24 19,5 C 49 % 0,0 l/m 4,0 km/h (1 Bft) N-NW 337 8,5 C 21,9 C 4,7 km/h (1 Bft)
14.06.2012 16:29 18,3 C 49 % 0,0 l/m 4,0 km/h (1 Bft) N-NW 337 7,4 C 21,6 C 6,3 km/h (2 Bft)
14.06.2012 16:34 17,7 C 51 % 0,0 l/m 3,2 km/h (1 Bft) S-SW 202 7,4 C 20,3 C 1,8 km/h (1 Bft)
14.06.2012 16:39 17,7 C 52 % 0,0 l/m 2,4 km/h (1 Bft) W-SW 247 7,7 C 19,8 C 5,0 km/h (1 Bft)
14.06.2012 16:44 17,8 C 51 % 0,0 l/m 2,6 km/h (1 Bft) N-NW 337 7,5 C 19,5 C 2,7 km/h (1 Bft)
14.06.2012 16:49 17,9 C 52 % 0,0 l/m 2,1 km/h (1 Bft) N-NO 22 7,9 C 19,5 C 1,6 km/h (1 Bft)
14.06.2012 16:54 17,9 C 54 % 0,0 l/m 1,4 km/h (1 Bft) W-SW 247 8,5 C 19,6 C 3,4 km/h (1 Bft)
14.06.2012 16:59 18,4 C 54 % 0,0 l/m 2,1 km/h (1 Bft) NO 45 8,9 C 19,7 C 4,2 km/h (1 Bft)
14.06.2012 17:04 18,4 C 52 % 0,0 l/m 3,1 km/h (1 Bft) O-SO 112 8,4 C 19,7 C 1,9 km/h (1 Bft)
14.06.2012 17:09 18,6 C 50 % 0,0 l/m 2,9 km/h (1 Bft) W-NW 292 8,0 C 20,2 C 3,7 km/h (1 Bft)
14.06.2012 17:14 18,7 C 52 % 0,0 l/m 1,1 km/h (1 Bft) W-NW 292 8,6 C 21,0 C 1,6 km/h (1 Bft)
14.06.2012 17:19 18,5 C 50 % 0,0 l/m 1,4 km/h (1 Bft) SW 225 7,9 C 21,7 C 7,9 km/h (2 Bft)
14.06.2012 17:24 18,0 C 53 % 0,0 l/m 2,3 km/h (1 Bft) S-SW 202 8,3 C 21,3 C 4,0 km/h (1 Bft)
14.06.2012 17:29 18,0 C 52 % 0,0 l/m 3,7 km/h (1 Bft) S-SO 157 8,0 C 20,9 C 4,0 km/h (1 Bft)
14.06.2012 17:34 18,0 C 51 % 0,0 l/m 4,3 km/h (1 Bft) NO 45 7,7 C 20,9 C 2,1 km/h (1 Bft)
14.06.2012 17:39 17,5 C 54 % 0,0 l/m 3,5 km/h (1 Bft) W-SW 247 8,1 C 20,5 C 1,6 km/h (1 Bft)
14.06.2012 17:44 17,0 C 54 % 0,0 l/m 2,6 km/h (1 Bft) N-NW 337 7,6 C 19,8 C 4,3 km/h (1 Bft)
14.06.2012 17:49 16,7 C 56 % 0,0 l/m 1,9 km/h (1 Bft) NW 315 7,9 C 19,3 C 2,9 km/h (1 Bft)
14.06.2012 17:54 16,5 C 56 % 0,0 l/m 1,0 km/h (0 Bft) N 360 7,7 C 18,6 C 0,0 km/h (0 Bft)
14.06.2012 17:59 16,9 C 56 % 0,0 l/m 0,5 km/h (0 Bft) W 270 8,1 C 19,3 C 0,0 km/h (0 Bft)
14.06.2012 18:04 17,6 C 55 % 0,0 l/m 1,9 km/h (1 Bft) W-SW 247 8,5 C 21,1 C 3,1 km/h (1 Bft)
14.06.2012 18:09 18,0 C 54 % 0,0 l/m 3,1 km/h (1 Bft) W 270 8,6 C 21,6 C 6,3 km/h (2 Bft)
14.06.2012 18:14 17,9 C 52 % 0,0 l/m 3,9 km/h (1 Bft) N-NW 337 7,9 C 21,9 C 2,4 km/h (1 Bft)
14.06.2012 18:19 17,7 C 52 % 0,0 l/m 4,2 km/h (1 Bft) S 180 7,7 C 22,1 C 3,5 km/h (1 Bft)
14.06.2012 18:24 17,1 C 53 % 0,0 l/m 2,9 km/h (1 Bft) W 270 7,4 C 21,0 C 0,0 km/h (0 Bft)
14.06.2012 18:29 17,2 C 55 % 0,0 l/m 1,9 km/h (1 Bft) N 360 8,1 C 20,4 C 0,0 km/h (0 Bft)
14.06.2012 18:34 17,7 C 56 % 0,0 l/m 1,1 km/h (1 Bft) W-SW 247 8,8 C 21,2 C 7,4 km/h (2 Bft)
14.06.2012 18:39 18,2 C 52 % 0,0 l/m 2,3 km/h (1 Bft) W 270 8,2 C 21,7 C 5,6 km/h (1 Bft)
14.06.2012 18:44 18,2 C 50 % 0,0 l/m 3,4 km/h (1 Bft) SW 225 7,6 C 22,6 C 4,0 km/h (1 Bft)
14.06.2012 18:49 18,3 C 51 % 0,0 l/m 2,7 km/h (1 Bft) W-NW 292 8,0 C 22,9 C 0,0 km/h (0 Bft)
14.06.2012 18:54 17,9 C 52 % 0,0 l/m 3,1 km/h (1 Bft) W-NW 292 7,9 C 23,0 C 7,1 km/h (2 Bft)
14.06.2012 18:59 17,8 C 53 % 0,0 l/m 3,7 km/h (1 Bft) W-NW 292 8,1 C 22,5 C 6,0 km/h (2 Bft)
14.06.2012 19:04 17,6 C 50 % 0,0 l/m 4,3 km/h (1 Bft) N 360 7,1 C 22,0 C 2,4 km/h (1 Bft)
14.06.2012 19:09 17,6 C 52 % 0,0 l/m 3,9 km/h (1 Bft) W-SW 247 7,6 C 22,0 C 5,1 km/h (1 Bft)
14.06.2012 19:14 17,7 C 52 % 0,0 l/m 3,4 km/h (1 Bft) W 270 7,7 C 21,9 C 5,0 km/h (1 Bft)
14.06.2012 19:19 17,6 C 53 % 0,0 l/m 3,9 km/h (1 Bft) W-SW 247 7,9 C 21,7 C 3,4 km/h (1 Bft)
14.06.2012 19:24 17,1 C 53 % 0,0 l/m 3,1 km/h (1 Bft) S 180 7,4 C 21,1 C 6,4 km/h (2 Bft)
14.06.2012 19:29 16,7 C 54 % 0,0 l/m 2,4 km/h (1 Bft) S 180 7,3 C 19,8 C 2,1 km/h (1 Bft)
14.06.2012 19:34 16,0 C 57 % 0,0 l/m 1,8 km/h (1 Bft) NO 45 7,5 C 18,5 C 0,0 km/h (0 Bft)
14.06.2012 19:39 15,9 C 59 % 0,0 l/m 0,6 km/h (0 Bft) N-NO 22 7,9 C 18,0 C 0,0 km/h (0 Bft)
14.06.2012 19:44 16,9 C 58 % 0,0 l/m 0,8 km/h (0 Bft) S-SW 202 8,6 C 18,7 C 3,4 km/h (1 Bft)
14.06.2012 19:49 17,5 C 55 % 0,0 l/m 1,8 km/h (1 Bft) W-NW 292 8,4 C 19,6 C 1,8 km/h (1 Bft)
14.06.2012 19:54 17,7 C 54 % 0,0 l/m 2,9 km/h (1 Bft) SO 135 8,3 C 20,7 C 7,4 km/h (2 Bft)
14.06.2012 19:59 17,6 C 53 % 0,0 l/m 3,2 km/h (1 Bft) W-SW 247 7,9 C 20,7 C 4,7 km/h (1 Bft)
14.06.2012 20:04 17,5 C 54 % 0,0 l/m 3,1 km/h (1 Bft) W-NW 292 8,1 C 20,7 C 3,9 km/h (1 Bft)
14.06.2012 20:09 17,2 C 54 % 0,0 l/m 2,6 km/h (1 Bft) S 180 7,8 C 20,6 C 3,9 km/h (1 Bft)
14.06.2012 20:14 16,9 C 55 % 0,0 l/m 2,9 km/h (1 Bft) W 270 7,8 C 20,1 C 2,4 km/h (1 Bft)
14.06.2012 20:19 16,6 C 57 % 0,0 l/m 2,1 km/h (1 Bft) W-NW 292 8,0 C 20,0 C 0,0 km/h (0 Bft)
14.06.2012 20:24 16,3 C 58 % 0,0 l/m 0,5 km/h (0 Bft) S-SW 202 8,0 C 19,8 C 0,0 km/h (0 Bft)
14.06.2012 20:29 15,8 C 59 % 0,0 l/m 0,0 km/h (0 Bft) N-NW 337 7,8 C 19,3 C 0,0 km/h (0 Bft)
14.06.2012 20:34 15,2 C 59 % 0,0 l/m 0,2 km/h (0 Bft) N-NO 22 7,2 C 17,9 C 0,0 km/h (0 Bft)
14.06.2012 20:39 14,7 C 61 % 0,0 l/m 0,2 km/h (0 Bft) N-NO 22 7,3 C 17,5 C 0,0 km/h (0 Bft)
14.06.2012 20:44 14,1 C 64 % 0,0 l/m 0,0 km/h (0 Bft) N-NO 22 7,4 C 16,6 C 0,0 km/h (0 Bft)
14.06.2012 20:49 13,9 C 65 % 0,0 l/m 0,0 km/h (0 Bft) N-NO 22 7,4 C 15,8 C 0,0 km/h (0 Bft)
14.06.2012 20:54 13,5 C 67 % 0,0 l/m 0,0 km/h (0 Bft) O 90 7,5 C 14,4 C 0,0 km/h (0 Bft)
14.06.2012 20:59 13,3 C 69 % 0,0 l/m 0,0 km/h (0 Bft) N-NW 337 7,7 C 13,9 C 0,0 km/h (0 Bft)
14.06.2012 21:04 12,9 C 69 % 0,0 l/m 0,0 km/h (0 Bft) O-SO 112 7,4 C 13,2 C 0,0 km/h (0 Bft)
14.06.2012 21:09 12,6 C 71 % 0,0 l/m 0,0 km/h (0 Bft) NO 45 7,5 C 13,0 C 0,0 km/h (0 Bft)
14.06.2012 21:14 12,5 C 72 % 0,0 l/m 0,0 km/h (0 Bft) NO 45 7,6 C 12,5 C 0,0 km/h (0 Bft)
14.06.2012 21:19 12,3 C 72 % 0,0 l/m 0,0 km/h (0 Bft) NO 45 7,4 C 12,3 C 0,0 km/h (0 Bft)
14.06.2012 21:24 12,3 C 72 % 0,0 l/m 0,0 km/h (0 Bft) NW 315 7,4 C 11,9 C 0,0 km/h (0 Bft)
14.06.2012 21:29 12,0 C 73 % 0,0 l/m 0,2 km/h (0 Bft) NO 45 7,3 C 11,6 C 2,7 km/h (1 Bft)
14.06.2012 21:34 11,3 C 74 % 0,0 l/m 0,2 km/h (0 Bft) NO 45 6,8 C 11,2 C 0,0 km/h (0 Bft)
14.06.2012 21:39 11,0 C 75 % 0,0 l/m 0,2 km/h (0 Bft) N-NW 337 6,7 C 10,9 C 0,0 km/h (0 Bft)
14.06.2012 21:44 10,9 C 76 % 0,0 l/m 0,2 km/h (0 Bft) N-NO 22 6,8 C 10,6 C 0,0 km/h (0 Bft)
14.06.2012 21:49 10,6 C 77 % 0,0 l/m 0,2 km/h (0 Bft) NO 45 6,7 C 10,4 C 0,0 km/h (0 Bft)
14.06.2012 21:54 10,6 C 78 % 0,0 l/m 0,2 km/h (0 Bft) N-NO 22 6,9 C 10,2 C 0,0 km/h (0 Bft)
14.06.2012 21:59 10,5 C 79 % 0,0 l/m 0,5 km/h (0 Bft) N 360 7,0 C 10,0 C 2,6 km/h (1 Bft)
14.06.2012 22:04 10,5 C 81 % 0,0 l/m 0,8 km/h (0 Bft) N-NO 22 7,4 C 9,9 C 0,0 km/h (0 Bft)
14.06.2012 22:09 10,4 C 80 % 0,0 l/m 0,6 km/h (0 Bft) NO 45 7,1 C 9,7 C 0,0 km/h (0 Bft)
14.06.2012 22:14 10,3 C 81 % 0,0 l/m 0,6 km/h (0 Bft) N-NO 22 7,2 C 9,6 C 2,1 km/h (1 Bft)
14.06.2012 22:19 10,2 C 81 % 0,0 l/m 1,0 km/h (0 Bft) NO 45 7,1 C 9,5 C 0,0 km/h (0 Bft)
14.06.2012 22:24 10,1 C 81 % 0,0 l/m 1,0 km/h (0 Bft) NO 45 7,0 C 9,4 C 3,1 km/h (1 Bft)
14.06.2012 22:29 9,9 C 82 % 0,0 l/m 0,6 km/h (0 Bft) NO 45 7,0 C 9,5 C 0,0 km/h (0 Bft)
14.06.2012 22:34 9,7 C 82 % 0,0 l/m 1,0 km/h (0 Bft) N-NO 22 6,8 C 9,4 C 0,0 km/h (0 Bft)
14.06.2012 22:39 9,8 C 82 % 0,0 l/m 0,5 km/h (0 Bft) NO 45 6,9 C 9,3 C 0,0 km/h (0 Bft)
14.06.2012 22:44 9,3 C 81 % 0,0 l/m 0,0 km/h (0 Bft) S-SW 202 6,2 C 8,9 C 0,0 km/h (0 Bft)
14.06.2012 22:49 9,1 C 82 % 0,0 l/m 0,0 km/h (0 Bft) N-NO 22 6,2 C 8,8 C 0,0 km/h (0 Bft)
14.06.2012 22:54 9,0 C 82 % 0,0 l/m 0,0 km/h (0 Bft) W-NW 292 6,1 C 8,5 C 0,0 km/h (0 Bft)
14.06.2012 22:59 8,7 C 83 % 0,0 l/m 0,0 km/h (0 Bft) W-NW 292 6,0 C 8,4 C 0,0 km/h (0 Bft)
14.06.2012 23:04 8,6 C 83 % 0,0 l/m 0,0 km/h (0 Bft) N-NO 22 5,9 C 8,2 C 0,0 km/h (0 Bft)
14.06.2012 23:09 8,6 C 83 % 0,0 l/m 0,0 km/h (0 Bft) NO 45 5,9 C 8,1 C 0,0 km/h (0 Bft)
14.06.2012 23:14 8,8 C 85 % 0,0 l/m 0,0 km/h (0 Bft) N-NW 337 6,4 C 8,1 C 0,0 km/h (0 Bft)
14.06.2012 23:19 8,5 C 84 % 0,0 l/m 0,0 km/h (0 Bft) N 360 6,0 C 8,1 C 0,0 km/h (0 Bft)
14.06.2012 23:24 8,2 C 84 % 0,0 l/m 0,0 km/h (0 Bft) N-NO 22 5,7 C 7,9 C 0,0 km/h (0 Bft)
14.06.2012 23:29 8,2 C 84 % 0,0 l/m 0,0 km/h (0 Bft) N-NO 22 5,7 C 7,8 C 0,0 km/h (0 Bft)
14.06.2012 23:34 8,1 C 85 % 0,0 l/m 0,0 km/h (0 Bft) N-NO 22 5,7 C 7,7 C 0,0 km/h (0 Bft)
14.06.2012 23:39 8,0 C 85 % 0,0 l/m 0,0 km/h (0 Bft) N-NW 337 5,6 C 7,6 C 0,0 km/h (0 Bft)
14.06.2012 23:44 7,8 C 85 % 0,0 l/m 0,0 km/h (0 Bft) N-NO 22 5,4 C 7,5 C 0,0 km/h (0 Bft)
14.06.2012 23:49 7,9 C 86 % 0,0 l/m 0,0 km/h (0 Bft) NO 45 5,7 C 7,5 C 0,0 km/h (0 Bft)
14.06.2012 23:54 8,1 C 86 % 0,0 l/m 0,0 km/h (0 Bft) S-SO 157 5,9 C 7,7 C 0,0 km/h (0 Bft)
14.06.2012 23:59 8,3 C 87 % 0,0 l/m 0,2 km/h (0 Bft) O-SO 112 6,3 C 7,9 C 0,0 km/h (0 Bft)
_ Min-Zeit 05:29 14:39 - 23:54 - - 05:29 05:29 23:59
Minimum _ 4,1 C 41 % - 0,0 km/h (0 Bft) - - 3,4 C 3,8 C 0,0 km/h (0 Bft)
_ Max-Zeit 14:39 05:59 00:05 13:39 - - 09:14 12:39 15:14
Maximum _ 21,1 C 95 % 0,7 l/m 6,4 km/h
W-NW (2 Bft)
- - 10,9 C 23,2 C 11,1 km/h
NW (2 Bft)
Durchschnitt _ 13,7 C 68 % #0,7 l/m 1,7 km/h (1 Bft) W-SW - 7,2 C 15,1 C 2,3 km/h (1 Bft)